| time (UTC) | temp F | wind direction | speed knots | gust knots | rain 1hr in | rain 24hr in | rain mn in | humidity % | barometer mb |
| 20260505011751 | 64 | 36 | 2.6 | 4.3 | 0.00 | 0.00 | 0.00 | 37 | 1010.9 |
| 20260505011248 | 64 | 52 | 0.9 | 0.9 | 0.00 | 0.00 | 0.00 | 41 | 1010.8 |
| 20260505010744 | 64 | 55 | 0.9 | 0.9 | 0.00 | 0.00 | 0.00 | 41 | 1010.7 |
| 20260505010240 | 63 | 53 | 1.7 | 1.7 | 0.00 | 0.00 | 0.00 | 40 | 1010.9 |
| 20260505005737 | 63 | 66 | 0.9 | 0.9 | 0.00 | 0.00 | 0.00 | 40 | 1010.7 |
| 20260505005234 | 63 | 65 | 1.7 | 1.7 | 0.00 | 0.00 | 0.00 | 41 | 1010.9 |
| 20260505004731 | 63 | 55 | 0.0 | 0.0 | 0.00 | 0.00 | 0.00 | 41 | 1010.7 |
| 20260505004227 | 63 | 55 | 2.6 | 5.2 | 0.00 | 0.00 | 0.00 | 39 | 1010.9 |
| 20260505003725 | 63 | 60 | 0.9 | 0.9 | 0.00 | 0.00 | 0.00 | 39 | 1010.8 |
| 20260505003222 | 63 | 52 | 0.9 | 1.7 | 0.00 | 0.00 | 0.00 | 40 | 1010.8 |
| 20260505002718 | 64 | 61 | 3.5 | 6.1 | 0.00 | 0.00 | 0.00 | 39 | 1010.9 |
| 20260505002216 | 64 | 62 | 0.9 | 0.9 | 0.00 | 0.00 | 0.00 | 40 | 1010.8 |
| 20260505001713 | 64 | 41 | 1.7 | 1.7 | 0.00 | 0.00 | 0.00 | 39 | 1011.1 |
| 20260505001211 | 65 | 66 | 2.6 | 5.2 | 0.00 | 0.00 | 0.00 | 38 | 1011.0 |
| 20260505000708 | 66 | 57 | 3.5 | 5.2 | 0.00 | 0.00 | 0.00 | 38 | 1010.9 |
| 20260505000206 | 66 | 44 | 1.7 | 2.6 | 0.00 | 0.00 | 0.00 | 38 | 1010.9 |
| 20260504235702 | 67 | 57 | 2.6 | 2.6 | 0.00 | 0.00 | 0.00 | 39 | 1010.6 |
| 20260504235158 | 67 | 52 | 2.6 | 2.6 | 0.00 | 0.00 | 0.00 | 36 | 1010.7 |
| 20260504234656 | 68 | 60 | 2.6 | 2.6 | 0.00 | 0.00 | 0.00 | 35 | 1010.6 |
| 20260504234152 | 66 | 24 | 2.6 | 7.8 | 0.00 | 0.00 | 0.00 | 38 | 1010.4 |
| 20260504233648 | 66 | 50 | 6.1 | 9.6 | 0.00 | 0.00 | 0.00 | 38 | 1010.6 |
| 20260504233144 | 67 | 44 | 0.9 | 0.9 | 0.00 | 0.00 | 0.00 | 37 | 1010.6 |
| 20260504232642 | 68 | 52 | 3.5 | 5.2 | 0.00 | 0.00 | 0.00 | 38 | 1010.6 |
| 20260504232139 | 68 | 59 | 2.6 | 2.6 | 0.00 | 0.00 | 0.00 | 36 | 1010.7 |
| 20260504231636 | 68 | 64 | 0.9 | 0.9 | 0.00 | 0.00 | 0.00 | 39 | 1010.4 |
| 20260504231132 | 68 | 62 | 0.0 | 0.9 | 0.00 | 0.00 | 0.00 | 37 | 1010.4 |
| 20260504230628 | 68 | 66 | 0.0 | 0.9 | 0.00 | 0.00 | 0.00 | 37 | 1010.6 |
| 20260504230127 | 69 | 24 | 2.6 | 2.6 | 0.00 | 0.00 | 0.00 | 39 | 1010.3 |
| 20260504225625 | 69 | 52 | 2.6 | 4.3 | 0.00 | 0.00 | 0.00 | 38 | 1010.0 |
| 20260504225121 | 69 | 74 | 0.9 | 1.7 | 0.00 | 0.00 | 0.00 | 34 | 1010.6 |
| 20260504224618 | 70 | 52 | 1.7 | 1.7 | 0.00 | 0.00 | 0.00 | 34 | 1010.4 |
| 20260504224115 | 70 | 57 | 0.9 | 1.7 | 0.00 | 0.00 | 0.00 | 32 | 1010.2 |
| 20260504223612 | 70 | 50 | 1.7 | 1.7 | 0.00 | 0.00 | 0.00 | 34 | 1010.6 |
| 20260504223107 | 71 | 222 | 1.7 | 2.6 | 0.00 | 0.00 | 0.00 | 34 | 1010.3 |
| 20260504222605 | 70 | 60 | 1.7 | 1.7 | 0.00 | 0.00 | 0.00 | 33 | 1010.3 |
| 20260504222101 | 70 | 57 | 2.6 | 2.6 | 0.00 | 0.00 | 0.00 | 33 | 1010.2 |
| 20260504221559 | 71 | 64 | 2.6 | 4.3 | 0.00 | 0.00 | 0.00 | 34 | 1010.6 |
| 20260504221055 | 70 | 63 | 2.6 | 2.6 | 0.00 | 0.00 | 0.00 | 35 | 1010.3 |
| 20260504220552 | 70 | 51 | 3.5 | 4.3 | 0.00 | 0.00 | 0.00 | 34 | 1010.4 |
| 20260504220049 | 70 | 47 | 1.7 | 1.7 | 0.00 | 0.00 | 0.00 | 34 | 1010.3 |
| 20260504215546 | 71 | 55 | 0.0 | 0.9 | 0.00 | 0.00 | 0.00 | 33 | 1010.3 |
| 20260504215043 | 72 | 42 | 1.7 | 1.7 | 0.00 | 0.00 | 0.00 | 33 | 1010.4 |
| 20260504214539 | 70 | 60 | 0.9 | 0.9 | 0.00 | 0.00 | 0.00 | 34 | 1010.4 |
| 20260504214035 | 70 | 337 | 1.7 | 2.6 | 0.00 | 0.00 | 0.00 | 34 | 1010.7 |
| 20260504213532 | 71 | 34 | 5.2 | 7.0 | 0.00 | 0.00 | 0.00 | 33 | 1010.8 |
| 20260504213029 | 71 | 57 | 1.7 | 2.6 | 0.00 | 0.00 | 0.00 | 34 | 1010.4 |
| 20260504212525 | 70 | 50 | 0.9 | 0.9 | 0.00 | 0.00 | 0.00 | 33 | 1010.6 |
| 20260504212023 | 71 | 34 | 1.7 | 1.7 | 0.00 | 0.00 | 0.00 | 34 | 1010.7 |
| 20260504211519 | 70 | 54 | 0.9 | 0.9 | 0.00 | 0.00 | 0.00 | 33 | 1010.6 |
| 20260504211017 | 70 | 69 | 1.7 | 1.7 | 0.00 | 0.00 | 0.00 | 35 | 1010.7 |
| 20260504210513 | 70 | 58 | 2.6 | 4.3 | 0.00 | 0.00 | 0.00 | 35 | 1010.6 |
| 20260504210010 | 71 | 59 | 1.7 | 2.6 | 0.00 | 0.00 | 0.00 | 34 | 1010.8 |
| 20260504205508 | 71 | 59 | 0.9 | 1.7 | 0.00 | 0.00 | 0.00 | 32 | 1011.0 |
| 20260504205006 | 69 | 39 | 3.5 | 4.3 | 0.00 | 0.00 | 0.00 | 36 | 1010.8 |
| 20260504204504 | 70 | 52 | 3.5 | 4.3 | 0.00 | 0.00 | 0.00 | 33 | 1011.1 |
| 20260504204002 | 70 | 31 | 2.6 | 2.6 | 0.00 | 0.00 | 0.00 | 34 | 1010.8 |
| 20260504203500 | 71 | 52 | 0.9 | 0.9 | 0.00 | 0.00 | 0.00 | 32 | 1011.2 |
| 20260504202956 | 69 | 41 | 1.7 | 2.6 | 0.00 | 0.00 | 0.00 | 38 | 1010.9 |
| 20260504202452 | 70 | 9 | 2.6 | 2.6 | 0.00 | 0.00 | 0.00 | 34 | 1011.0 |
| 20260504201949 | 69 | 7 | 4.3 | 6.1 | 0.00 | 0.00 | 0.00 | 34 | 1011.2 |
| 20260504201446 | 70 | 160 | 1.7 | 1.7 | 0.00 | 0.00 | 0.00 | 34 | 1011.0 |
| 20260504200944 | 70 | 65 | 1.7 | 2.6 | 0.00 | 0.00 | 0.00 | 32 | 1011.0 |
| 20260504200441 | 69 | 350 | 2.6 | 2.6 | 0.00 | 0.00 | 0.00 | 36 | 1010.8 |
| 20260504195937 | 69 | 47 | 1.7 | 1.7 | 0.00 | 0.00 | 0.00 | 34 | 1011.0 |
| 20260504195433 | 70 | 62 | 3.5 | 4.3 | 0.00 | 0.00 | 0.00 | 34 | 1011.0 |
| 20260504194930 | 68 | 38 | 2.6 | 4.3 | 0.00 | 0.00 | 0.00 | 35 | 1011.0 |
| 20260504194426 | 69 | 49 | 1.7 | 1.7 | 0.00 | 0.00 | 0.00 | 36 | 1011.2 |
| 20260504193922 | 68 | 69 | 0.9 | 1.7 | 0.00 | 0.00 | 0.00 | 35 | 1011.1 |
| 20260504193419 | 69 | 41 | 4.3 | 6.1 | 0.00 | 0.00 | 0.00 | 33 | 1011.3 |
| 20260504192918 | 69 | 31 | 2.6 | 4.3 | 0.00 | 0.00 | 0.00 | 35 | 1011.2 |
| 20260504192415 | 68 | 46 | 1.7 | 1.7 | 0.00 | 0.00 | 0.00 | 33 | 1011.3 |
| 20260504191914 | 68 | 49 | 2.6 | 2.6 | 0.00 | 0.00 | 0.00 | 37 | 1011.4 |
| 20260504191411 | 68 | 31 | 1.7 | 2.6 | 0.00 | 0.00 | 0.00 | 37 | 1011.4 |
| 20260504190906 | 69 | 65 | 2.6 | 2.6 | 0.00 | 0.00 | 0.00 | 34 | 1011.5 |
| 20260504190402 | 68 | 30 | 2.6 | 4.3 | 0.00 | 0.00 | 0.00 | 37 | 1011.5 |
| 20260504185859 | 68 | 43 | 0.9 | 1.7 | 0.00 | 0.00 | 0.00 | 37 | 1011.7 |
| 20260504185356 | 67 | 43 | 2.6 | 2.6 | 0.00 | 0.00 | 0.00 | 36 | 1011.7 |
| 20260504184852 | 67 | 24 | 1.7 | 1.7 | 0.00 | 0.00 | 0.00 | 36 | 1012.0 |
| 20260504184348 | 67 | 45 | 1.7 | 1.7 | 0.00 | 0.00 | 0.00 | 34 | 1011.9 |
| 20260504183844 | 68 | 70 | 1.7 | 1.7 | 0.00 | 0.00 | 0.00 | 34 | 1012.1 |
| 20260504183342 | 67 | 24 | 0.9 | 1.7 | 0.00 | 0.00 | 0.00 | 35 | 1012.0 |
| 20260504182839 | 67 | 50 | 4.3 | 7.0 | 0.00 | 0.00 | 0.00 | 36 | 1012.1 |
| 20260504182337 | 66 | 37 | 0.9 | 0.9 | 0.00 | 0.00 | 0.00 | 36 | 1012.0 |
| 20260504181833 | 66 | 62 | 3.5 | 5.2 | 0.00 | 0.00 | 0.00 | 35 | 1012.2 |
| 20260504181331 | 65 | 61 | 2.6 | 2.6 | 0.00 | 0.00 | 0.00 | 40 | 1012.3 |
| 20260504180830 | 66 | 71 | 1.7 | 2.6 | 0.00 | 0.00 | 0.00 | 40 | 1012.2 |
| 20260504180328 | 65 | 66 | 2.6 | 4.3 | 0.00 | 0.00 | 0.00 | 38 | 1012.1 |
| 20260504175825 | 64 | 57 | 3.5 | 4.3 | 0.00 | 0.00 | 0.00 | 39 | 1012.3 |
| 20260504175322 | 64 | 45 | 2.6 | 5.2 | 0.00 | 0.00 | 0.00 | 39 | 1012.4 |
| 20260504174820 | 63 | 59 | 2.6 | 4.3 | 0.00 | 0.00 | 0.00 | 38 | 1012.4 |
| 20260504174317 | 64 | 50 | 3.5 | 4.3 | 0.00 | 0.00 | 0.00 | 39 | 1012.2 |
| 20260504173814 | 64 | 29 | 5.2 | 7.0 | 0.00 | 0.00 | 0.00 | 39 | 1012.3 |
| 20260504173311 | 63 | 61 | 2.6 | 5.2 | 0.00 | 0.00 | 0.00 | 39 | 1012.4 |
| 20260504172808 | 63 | 65 | 4.3 | 6.1 | 0.00 | 0.00 | 0.00 | 38 | 1012.4 |
| 20260504172305 | 63 | 56 | 5.2 | 7.0 | 0.00 | 0.00 | 0.00 | 39 | 1012.6 |
| 20260504171800 | 62 | 25 | 5.2 | 7.0 | 0.00 | 0.00 | 0.00 | 39 | 1012.4 |
| 20260504171258 | 62 | 61 | 2.6 | 4.3 | 0.00 | 0.00 | 0.00 | 41 | 1012.6 |
| 20260504170755 | 63 | 22 | 5.2 | 7.8 | 0.00 | 0.00 | 0.00 | 39 | 1012.3 |
| 20260504170252 | 61 | 62 | 4.3 | 7.0 | 0.00 | 0.00 | 0.00 | 41 | 1012.8 |
| 20260504160210 | 59 | 37 | 4.3 | 6.1 | 0.00 | 0.00 | 0.00 | 43 | 1013.2 |
| 20260504151138 | 57 | 43 | 3.5 | 4.3 | 0.00 | 0.00 | 0.00 | 44 | 1013.5 |
| 20260504150635 | 57 | 63 | 5.2 | 7.0 | 0.00 | 0.00 | 0.00 | 43 | 1013.1 |
| 20260504150132 | 57 | 40 | 4.3 | 5.2 | 0.00 | 0.00 | 0.00 | 43 | 1013.1 |
| 20260504141101 | 54 | 21 | 4.3 | 6.1 | 0.00 | 0.00 | 0.00 | 47 | 1012.8 |
| 20260504140557 | 54 | 42 | 3.5 | 5.2 | 0.00 | 0.00 | 0.00 | 47 | 1012.6 |
| 20260504130521 | 50 | 55 | 1.7 | 1.7 | 0.00 | 0.00 | 0.00 | 55 | 1012.1 |
| 20260504110409 | 43 | 66 | 0.0 | 0.0 | 0.00 | 0.00 | 0.00 | 83 | 1011.2 |
| 20260504100326 | 41 | 65 | 0.0 | 0.0 | 0.00 | 0.00 | 0.00 | 87 | 1010.2 |
| 20260504081720 | 44 | 64 | 0.0 | 0.0 | 0.00 | 0.00 | 0.00 | 83 | 1010.1 |
| 20260504081216 | 45 | 63 | 0.0 | 0.0 | 0.00 | 0.00 | 0.00 | 82 | 1010.3 |
| 20260504080712 | 47 | 63 | 0.0 | 0.0 | 0.00 | 0.00 | 0.00 | 77 | 1010.1 |
| 20260504080209 | 48 | 63 | 0.0 | 0.0 | 0.00 | 0.00 | 0.00 | 77 | 1010.1 |
| 20260504070137 | 46 | 60 | 0.0 | 0.0 | 0.00 | 0.00 | 0.00 | 76 | 1009.9 |
| 20260504050525 | 51 | 65 | 0.0 | 0.0 | 0.00 | 0.00 | 0.00 | 66 | 1009.7 |
| 20260504050022 | 52 | 59 | 0.0 | 0.0 | 0.00 | 0.00 | 0.00 | 64 | 1009.6 |
| 20260504045519 | 54 | 62 | 0.0 | 0.0 | 0.00 | 0.00 | 0.00 | 61 | 1009.7 |
| 20260504045014 | 55 | 64 | 0.0 | 0.0 | 0.00 | 0.00 | 0.00 | 58 | 1009.6 |
| 20260504044512 | 55 | 65 | 0.0 | 0.0 | 0.00 | 0.00 | 0.00 | 59 | 1009.6 |
| 20260504044009 | 56 | 65 | 0.0 | 0.0 | 0.00 | 0.00 | 0.00 | 59 | 1009.6 |
| 20260504043506 | 56 | 75 | 0.0 | 0.9 | 0.00 | 0.00 | 0.00 | 56 | 1009.4 |
| 20260504043003 | 56 | 66 | 0.0 | 0.0 | 0.00 | 0.00 | 0.00 | 55 | 1009.5 |
| 20260504042500 | 56 | 62 | 0.0 | 0.0 | 0.00 | 0.00 | 0.00 | 57 | 1009.5 |
| 20260504041957 | 57 | 60 | 0.9 | 1.7 | 0.00 | 0.00 | 0.00 | 56 | 1009.2 |
| 20260504041453 | 58 | 69 | 0.0 | 0.9 | 0.00 | 0.00 | 0.00 | 53 | 1009.5 |
| 20260504040948 | 59 | 65 | 0.0 | 0.0 | 0.00 | 0.00 | 0.00 | 51 | 1009.2 |
| 20260504040447 | 60 | 62 | 0.0 | 0.0 | 0.00 | 0.00 | 0.00 | 49 | 1009.2 |
| 20260504035942 | 60 | 125 | 0.9 | 1.7 | 0.00 | 0.00 | 0.00 | 48 | 1008.9 |
| 20260504035440 | 60 | 63 | 0.0 | 0.9 | 0.00 | 0.00 | 0.00 | 47 | 1009.0 |
| 20260504034937 | 60 | 42 | 1.7 | 1.7 | 0.00 | 0.00 | 0.00 | 48 | 1009.0 |
| 20260504034434 | 59 | 63 | 0.9 | 0.9 | 0.00 | 0.00 | 0.00 | 50 | 1008.9 |
| 20260504033931 | 59 | 63 | 0.0 | 0.0 | 0.00 | 0.00 | 0.00 | 54 | 1009.0 |
| 20260504033429 | 61 | 64 | 0.0 | 0.0 | 0.00 | 0.00 | 0.00 | 47 | 1008.8 |
| 20260504032926 | 59 | 61 | 0.9 | 0.9 | 0.00 | 0.00 | 0.00 | 53 | 1008.7 |
| 20260504032422 | 60 | 61 | 0.0 | 0.0 | 0.00 | 0.00 | 0.00 | 54 | 1008.8 |
| 20260504031919 | 62 | 60 | 0.0 | 0.0 | 0.00 | 0.00 | 0.00 | 48 | 1008.6 |
| 20260504031417 | 62 | 64 | 0.0 | 0.0 | 0.00 | 0.00 | 0.00 | 49 | 1008.7 |
| 20260504030913 | 62 | 61 | 0.0 | 0.0 | 0.00 | 0.00 | 0.00 | 47 | 1008.7 |
| 20260504030410 | 64 | 63 | 0.0 | 0.0 | 0.00 | 0.00 | 0.00 | 49 | 1008.7 |
| 20260504025901 | 64 | 61 | 0.0 | 0.0 | 0.00 | 0.00 | 0.00 | 47 | 1008.7 |
| 20260504025358 | 65 | 61 | 0.0 | 0.0 | 0.00 | 0.00 | 0.00 | 48 | 1008.5 |
| 20260504024855 | 66 | 60 | 0.0 | 0.0 | 0.00 | 0.00 | 0.00 | 45 | 1008.5 |
| 20260504024351 | 66 | 76 | 0.9 | 0.9 | 0.00 | 0.00 | 0.00 | 43 | 1008.6 |
| 20260504023849 | 67 | 61 | 0.0 | 0.0 | 0.00 | 0.00 | 0.00 | 42 | 1008.5 |
| 20260504023345 | 68 | 61 | 0.0 | 0.0 | 0.00 | 0.00 | 0.00 | 42 | 1008.6 |
| 20260504022840 | 69 | 65 | 0.0 | 0.0 | 0.00 | 0.00 | 0.00 | 43 | 1008.3 |
| 20260504022337 | 69 | 62 | 0.0 | 0.0 | 0.00 | 0.00 | 0.00 | 39 | 1008.5 |
| 20260504021834 | 69 | 81 | 0.9 | 1.7 | 0.00 | 0.00 | 0.00 | 43 | 1008.6 |
| 20260504021331 | 70 | 62 | 0.0 | 0.0 | 0.00 | 0.00 | 0.00 | 40 | 1008.6 |
| 20260504020828 | 70 | 103 | 0.9 | 1.7 | 0.00 | 0.00 | 0.00 | 41 | 1008.5 |
| 20260504020325 | 70 | 63 | 0.9 | 0.9 | 0.00 | 0.00 | 0.00 | 43 | 1008.3 |
| 20260504015821 | 69 | 34 | 0.9 | 0.9 | 0.00 | 0.00 | 0.00 | 38 | 1008.5 |
| 20260504015317 | 70 | 61 | 0.9 | 0.9 | 0.00 | 0.00 | 0.00 | 41 | 1008.4 |
| 20260504014814 | 70 | 52 | 1.7 | 1.7 | 0.00 | 0.00 | 0.00 | 38 | 1008.5 |
| 20260504014310 | 71 | 59 | 0.9 | 1.7 | 0.00 | 0.00 | 0.00 | 38 | 1008.5 |
| 20260504013808 | 72 | 50 | 1.7 | 2.6 | 0.00 | 0.00 | 0.00 | 36 | 1008.4 |
| 20260504013305 | 72 | 63 | 0.9 | 0.9 | 0.00 | 0.00 | 0.00 | 38 | 1008.7 |
| 20260504012802 | 72 | 42 | 2.6 | 2.6 | 0.00 | 0.00 | 0.00 | 36 | 1008.6 |
| 20260504012300 | 73 | 69 | 1.7 | 1.7 | 0.00 | 0.00 | 0.00 | 39 | 1008.7 |